CZ-6A DEB, 54410

Orbit data source: Space-Track

CZ-6A DEB, 54410 is space debris in SSO originally from a launch on Fri, 11 Nov 2022 UTC launched from the Taiyaun Space Center, China (TSC). Debris objects in space refer to the collection of defunct objects orbiting the Earth. Examples of debris include non-operational satellites, rocket bodies, and fragments generated from explosions, collisions, or faulty payload assembly.

Loading next visibility...
Identifier
54410, 2022-151EJ
Orbit
SSO
Country
Flag of CNCN / PRC
Related business
Manufacturer
SAST
Mission
Spacecraft
Bus & Motor
Unknown
Mass
Unknown
Launch date (UTC)
2022-11-11 (3 years ago)
Launch vehicle
Unknown
Launch site
Taiyaun Space Center, China (TSC)
Object type
Payload
Rocket body
Debris
Shape & HBR
Unknown shape, 0.3 m
Radar Cross Section
Medium (>0.1 m² and <1 m²)

Expand to show TLE details & history
Last TLE update: 12 hours ago

TLE from 12 hours ago
0 CZ-6A DEB
1 54410U 22151EJ  26130.13022279  .00001394  00000-0  39241-3 0  9992
2 54410  98.6902 177.9480 0127731  15.4075 345.0947 14.42839245182880
Epoch: 2026-05-10T03:07Z
TLE epoch observation values (Epoch: 2026-05-10T03:07:31.249Z)
Latitude
0.00002°
Longitude
-96.86993°
Altitude
664.166 km
Speed
7.571 km/s
True Right ascension
11h 51m 47s
True Declination
0° 00' 00"
Sunlit
Object was in full shadow at epoch
Visualization orbit readout
Latitude
Unknown
Longitude
Unknown
Altitude
Unknown
Speed
Unknown
Apparent Right ascension
Unknown
Apparent Declination
Unknown
Sunlit
N/A
Visualization observer readout
Local Sidereal Time
22:56:14
Azimuth
Unknown
Elevation
Unknown
Doppler factor
Unknown
Orbital elements
Apogee altitude
837.26 km
Perigee altitude
655.259 km
Semi-major axis
7,124.396 km
Eccentricity
0.01277
Inclination
98.6902°
RAAN
177.948°
Arg. of periapsis
15.4075°
True anomaly
344.71231°
Mean anomaly
345.0947°
Eccentric anomaly
344.9041°
Mean motion
3.60928 °/min
Orbital period
99.74 mins
BSTAR
0.00039241
Loading maneuver chart data...
Computing Atmospheric mass density...

Documentation

Showing up to 5 results
|